Location: Maddington
(51.2000°N, 1.9167°W)
Time: 21:40:55
(UTC+00:00)

NOSS 3-2 (A) - Pass Details

Date: 21 January 2021
Orbit: 783 x 1425 km, 63.4° (Epoch: 07 March)

Event Time Altitude Azimuth Distance (km) Brightness Sun altitude
Rises 05:49:18 0° 180° (S) 3,326 6.4 -19.9°
Reaches altitude 10° 05:51:58 10° 167° (SSE) 2,453 5.9 -19.5°
Maximum altitude 05:56:33 26° 113° (ESE) 1,700 5.6 -18.8°
Drops below altitude 10° 06:01:38 10° 59° (ENE) 2,750 6.6 -18.0°
Sets 06:04:49 0° 48° (NE) 3,818 7.2 -17.5°
